カタログに戻る

COSMOS 2454

運用中ナビゲーションPO
NORAD 35635·PAYLOAD·🇷🇺 Russia

打ち上げ Jul 21, 2009 から Plesetsk Cosmodrome

Loading…

次のパス (今後24時間)

TLE

最新Source: Space-Track

元期: Sep 14, 2026, 21:54 UTC

1 35635U 09039A   26257.91293447  .00000061  00000-0  36831-4 0  9996
2 35635  82.9579 319.2492 0019247   6.7242 172.1066 13.89958969869865

AllMySatでCOSMOS 2454をリアルタイム追跡

Download on the App Store